Time,TemperatureF,DewpointF,PressureIn,WindDirection,WindDirectionDegrees,WindSpeedMPH,WindSpeedGustMPH,Humidity,HourlyPrecipIn,Conditions,Clouds,dailyrainin,SoftwareType,DateUTC
2013-05-05 00:03:00,55.4,49.7,29.83,South,180,4.7,-999.0,81,-99.99,,,0.00,Acu-Link.com,2013-05-05 04:03:00,
2013-05-05 00:19:00,55.4,49.7,29.84,East,90,6.7,-999.0,81,-99.99,,,0.00,Acu-Link.com,2013-05-05 04:19:00,
2013-05-05 00:34:00,55.4,49.7,29.84,SW,225,2.7,-999.0,81,-99.99,,,0.00,Acu-Link.com,2013-05-05 04:34:00,
2013-05-05 00:49:00,55.4,49.7,29.83,SW,225,1.1,-999.0,81,-99.99,,,0.00,Acu-Link.com,2013-05-05 04:49:00,
2013-05-05 01:05:00,55.4,49.3,29.83,ENE,67,5.1,-999.0,80,-99.99,,,0.00,Acu-Link.com,2013-05-05 05:05:00,
2013-05-05 01:20:00,55.4,49.3,29.82,North,0,4.0,-999.0,80,-99.99,,,0.00,Acu-Link.com,2013-05-05 05:20:00,
2013-05-05 01:35:00,55.4,49.3,29.82,ESE,112,3.6,-999.0,80,-99.99,,,0.00,Acu-Link.com,2013-05-05 05:35:00,
2013-05-05 01:50:00,55.4,49.3,29.80,NNE,22,3.1,-999.0,80,-99.99,,,0.00,Acu-Link.com,2013-05-05 05:50:00,
2013-05-05 02:06:00,55.4,49.3,29.80,NNW,337,4.7,-999.0,80,-99.99,,,0.00,Acu-Link.com,2013-05-05 06:06:00,
2013-05-05 02:21:00,53.6,47.2,29.80,NW,315,3.1,-999.0,79,-99.99,,,0.00,Acu-Link.com,2013-05-05 06:21:00,
2013-05-05 02:36:00,53.6,47.2,29.78,West,270,3.1,-999.0,79,-99.99,,,0.00,Acu-Link.com,2013-05-05 06:36:00,
2013-05-05 02:51:00,53.6,47.9,29.77,West,270,5.1,-999.0,81,-99.99,,,0.00,Acu-Link.com,2013-05-05 06:51:00,
2013-05-05 03:06:00,53.6,48.9,29.77,SSE,157,4.0,-999.0,84,-99.99,,,0.00,Acu-Link.com,2013-05-05 07:06:00,
2013-05-05 03:21:00,53.6,49.2,29.77,East,90,2.7,-999.0,85,-99.99,,,0.00,Acu-Link.com,2013-05-05 07:21:00,
2013-05-05 03:37:00,51.8,47.4,29.76,NNW,337,3.1,-999.0,85,-99.99,,,0.00,Acu-Link.com,2013-05-05 07:37:00,
2013-05-05 03:52:00,51.8,47.7,29.76,ESE,112,4.7,-999.0,86,-99.99,,,0.00,Acu-Link.com,2013-05-05 07:52:00,
2013-05-05 04:07:00,51.8,47.7,29.76,SE,135,3.6,-999.0,86,-99.99,,,0.00,Acu-Link.com,2013-05-05 08:07:00,
2013-05-05 04:22:00,51.8,47.7,29.75,ESE,112,3.6,-999.0,86,-99.99,,,0.00,Acu-Link.com,2013-05-05 08:22:00,
2013-05-05 04:37:00,51.8,47.7,29.75,SE,135,3.6,-999.0,86,-99.99,,,0.00,Acu-Link.com,2013-05-05 08:37:00,
2013-05-05 04:52:00,51.8,47.1,29.75,NW,315,3.1,-999.0,84,-99.99,,,0.00,Acu-Link.com,2013-05-05 08:52:00,
2013-05-05 05:08:00,51.8,46.8,29.75,North,0,2.0,-999.0,83,-99.99,,,0.00,Acu-Link.com,2013-05-05 09:08:00,
2013-05-05 05:23:00,51.8,46.8,29.74,West,270,5.1,-999.0,83,-99.99,,,0.00,Acu-Link.com,2013-05-05 09:23:00,
2013-05-05 05:38:00,51.8,47.4,29.74,NE,45,2.7,-999.0,85,-99.99,,,0.00,Acu-Link.com,2013-05-05 09:38:00,
2013-05-05 05:53:00,51.8,47.1,29.74,West,270,5.1,-999.0,84,-99.99,,,0.00,Acu-Link.com,2013-05-05 09:53:00,
2013-05-05 06:08:00,51.8,46.8,29.74,NNW,337,3.6,-999.0,83,-99.99,,,0.00,Acu-Link.com,2013-05-05 10:08:00,
2013-05-05 06:24:00,51.8,46.5,29.74,NNW,337,3.1,-999.0,82,-99.99,,,0.00,Acu-Link.com,2013-05-05 10:24:00,
2013-05-05 06:39:00,51.8,46.2,29.74,East,90,5.1,-999.0,81,-99.99,,,0.00,Acu-Link.com,2013-05-05 10:39:00,
2013-05-05 06:54:00,51.8,46.2,29.75,South,180,5.6,-999.0,81,-99.99,,,0.00,Acu-Link.com,2013-05-05 10:54:00,
2013-05-05 07:09:00,51.8,46.2,29.75,ENE,67,9.8,-999.0,81,-99.99,,,0.00,Acu-Link.com,2013-05-05 11:09:00,
2013-05-05 07:24:00,51.8,45.8,29.75,ENE,67,5.1,-999.0,80,-99.99,,,0.00,Acu-Link.com,2013-05-05 11:24:00,
2013-05-05 07:40:00,51.8,45.8,29.75,SW,225,3.6,-999.0,80,-99.99,,,0.00,Acu-Link.com,2013-05-05 11:40:00,
2013-05-05 07:55:00,51.8,45.8,29.76,NW,315,5.6,-999.0,80,-99.99,,,0.00,Acu-Link.com,2013-05-05 11:55:00,
2013-05-05 08:10:00,51.8,45.5,29.76,ESE,112,6.7,-999.0,79,-99.99,,,0.00,Acu-Link.com,2013-05-05 12:10:00,
2013-05-05 08:25:00,51.8,45.5,29.76,West,270,5.1,-999.0,79,-99.99,,,0.00,Acu-Link.com,2013-05-05 12:25:00,
2013-05-05 08:41:00,51.8,45.5,29.76,South,180,2.7,-999.0,79,-99.99,,,0.00,Acu-Link.com,2013-05-05 12:41:00,
2013-05-05 08:56:00,51.8,45.5,29.76,WNW,292,6.7,-999.0,79,-99.99,,,0.00,Acu-Link.com,2013-05-05 12:56:00,
2013-05-05 09:11:00,51.8,45.5,29.76,ESE,112,5.6,-999.0,79,-99.99,,,0.00,Acu-Link.com,2013-05-05 13:11:00,
2013-05-05 09:26:00,51.8,45.5,29.76,South,180,4.0,-999.0,79,-99.99,,,0.00,Acu-Link.com,2013-05-05 13:26:00,
2013-05-05 09:42:00,53.6,47.2,29.75,ESE,112,7.2,-999.0,79,-99.99,,,0.00,Acu-Link.com,2013-05-05 13:42:00,
2013-05-05 09:57:00,51.8,45.8,29.76,East,90,3.1,-999.0,80,-99.99,,,0.00,Acu-Link.com,2013-05-05 13:57:00,
2013-05-05 10:12:00,51.8,46.2,29.76,SE,135,5.6,-999.0,81,-99.99,,,0.00,Acu-Link.com,2013-05-05 14:12:00,
2013-05-05 10:28:00,51.8,46.2,29.76,West,270,4.0,-999.0,81,-99.99,,,0.00,Acu-Link.com,2013-05-05 14:28:00,
2013-05-05 10:43:00,51.8,46.2,29.76,South,180,2.7,-999.0,81,-99.99,,,0.00,Acu-Link.com,2013-05-05 14:43:00,
2013-05-05 10:58:00,51.8,46.5,29.76,SSW,202,7.8,-999.0,82,-99.99,,,0.00,Acu-Link.com,2013-05-05 14:58:00,
2013-05-05 11:13:00,51.8,46.8,29.76,SSE,157,4.7,-999.0,83,-99.99,,,0.00,Acu-Link.com,2013-05-05 15:13:00,
2013-05-05 11:28:00,51.8,47.1,29.76,NNW,337,5.1,-999.0,84,-99.99,,,0.00,Acu-Link.com,2013-05-05 15:28:00,
2013-05-05 11:44:00,51.8,47.1,29.77,SSW,202,2.7,-999.0,84,-99.99,,,0.00,Acu-Link.com,2013-05-05 15:44:00,
2013-05-05 11:59:00,50.0,46.9,29.76,WNW,292,3.1,-999.0,89,-99.99,,,0.01,Acu-Link.com,2013-05-05 15:59:00,
2013-05-05 12:14:00,50.0,47.8,29.75,SSE,157,2.0,-999.0,92,-99.99,,,0.04,Acu-Link.com,2013-05-05 16:14:00,
2013-05-05 12:30:00,50.0,48.1,29.75,East,90,2.0,-999.0,93,-99.99,,,0.06,Acu-Link.com,2013-05-05 16:30:00,
2013-05-05 12:45:00,50.0,48.3,29.75,East,90,2.7,-999.0,94,-99.99,,,0.07,Acu-Link.com,2013-05-05 16:45:00,
2013-05-05 13:00:00,50.0,48.3,29.75,West,270,2.7,-999.0,94,-99.99,,,0.09,Acu-Link.com,2013-05-05 17:00:00,
2013-05-05 13:16:00,50.0,48.3,29.75,East,90,4.0,-999.0,94,-99.99,,,0.11,Acu-Link.com,2013-05-05 17:16:00,
2013-05-05 13:31:00,50.0,48.6,29.76,WNW,292,5.1,-999.0,95,-99.99,,,0.11,Acu-Link.com,2013-05-05 17:31:00,
2013-05-05 13:46:00,50.0,48.6,29.76,West,270,3.1,-999.0,95,-99.99,,,0.12,Acu-Link.com,2013-05-05 17:46:00,
2013-05-05 14:01:00,50.0,48.9,29.76,WNW,292,2.7,-999.0,96,-99.99,,,0.24,Acu-Link.com,2013-05-05 18:01:00,
2013-05-05 14:17:00,50.0,48.9,29.75,NNE,22,2.0,-999.0,96,-99.99,,,0.26,Acu-Link.com,2013-05-05 18:17:00,
2013-05-05 14:32:00,50.0,49.2,29.74,SE,135,4.7,-999.0,97,-99.99,,,0.30,Acu-Link.com,2013-05-05 18:32:00,
2013-05-05 14:47:00,51.8,51.0,29.74,NNE,22,1.6,-999.0,97,-99.99,,,0.34,Acu-Link.com,2013-05-05 18:47:00,
2013-05-05 15:03:00,51.8,51.0,29.73,West,270,2.7,-999.0,97,-99.99,,,0.35,Acu-Link.com,2013-05-05 19:03:00,
2013-05-05 15:18:00,51.8,50.7,29.73,NNE,22,2.7,-999.0,96,-99.99,,,0.39,Acu-Link.com,2013-05-05 19:18:00,
2013-05-05 15:33:00,51.8,50.7,29.72,NE,45,6.3,-999.0,96,-99.99,,,0.40,Acu-Link.com,2013-05-05 19:33:00,
2013-05-05 15:48:00,51.8,50.4,29.71,SSE,157,1.6,-999.0,95,-99.99,,,0.45,Acu-Link.com,2013-05-05 19:48:00,
2013-05-05 16:04:00,51.8,50.4,29.70,NE,45,3.1,-999.0,95,-99.99,,,0.48,Acu-Link.com,2013-05-05 20:04:00,
2013-05-05 16:19:00,53.6,52.2,29.70,SE,135,4.0,-999.0,95,-99.99,,,0.52,Acu-Link.com,2013-05-05 20:19:00,
2013-05-05 16:34:00,53.6,52.2,29.69,South,180,5.6,-999.0,95,-99.99,,,0.53,Acu-Link.com,2013-05-05 20:34:00,
2013-05-05 16:49:00,53.6,52.2,29.68,ESE,112,4.7,-999.0,95,-99.99,,,0.53,Acu-Link.com,2013-05-05 20:49:00,
2013-05-05 17:04:00,53.6,52.2,29.68,ESE,112,4.7,-999.0,95,-99.99,,,0.53,Acu-Link.com,2013-05-05 21:04:00,
2013-05-05 17:20:00,53.6,52.5,29.68,WNW,292,5.6,-999.0,96,-99.99,,,0.54,Acu-Link.com,2013-05-05 21:20:00,
2013-05-05 17:35:00,53.6,52.5,29.67,ESE,112,3.6,-999.0,96,-99.99,,,0.58,Acu-Link.com,2013-05-05 21:35:00,
2013-05-05 17:50:00,53.6,52.5,29.67,SE,135,2.7,-999.0,96,-99.99,,,0.59,Acu-Link.com,2013-05-05 21:50:00,
2013-05-05 18:05:00,53.6,52.5,29.67,ESE,112,2.7,-999.0,96,-99.99,,,0.60,Acu-Link.com,2013-05-05 22:05:00,
2013-05-05 18:21:00,53.6,52.8,29.67,NE,45,3.1,-999.0,97,-99.99,,,0.63,Acu-Link.com,2013-05-05 22:21:00,
2013-05-05 18:36:00,53.6,52.8,29.67,South,180,1.6,-999.0,97,-99.99,,,0.64,Acu-Link.com,2013-05-05 22:36:00,
2013-05-05 18:51:00,53.6,52.8,29.68,SE,135,3.1,-999.0,97,-99.99,,,0.65,Acu-Link.com,2013-05-05 22:51:00,
2013-05-05 19:06:00,53.6,52.8,29.67,SSE,157,3.6,-999.0,97,-99.99,,,0.66,Acu-Link.com,2013-05-05 23:06:00,
2013-05-05 19:21:00,53.6,52.8,29.67,NNE,22,4.7,-999.0,97,-99.99,,,0.66,Acu-Link.com,2013-05-05 23:21:00,
2013-05-05 19:36:00,55.4,54.6,29.67,SE,135,3.1,-999.0,97,-99.99,,,0.66,Acu-Link.com,2013-05-05 23:36:00,
2013-05-05 19:51:00,55.4,54.6,29.67,ESE,112,5.6,-999.0,97,-99.99,,,0.67,Acu-Link.com,2013-05-05 23:51:00,
2013-05-05 20:07:00,55.4,54.8,29.66,South,180,4.7,-999.0,98,-99.99,,,0.70,Acu-Link.com,2013-05-06 00:07:00,
2013-05-05 20:22:00,55.4,54.8,29.65,NW,315,4.7,-999.0,98,-99.99,,,0.70,Acu-Link.com,2013-05-06 00:22:00,
2013-05-05 20:37:00,55.4,54.8,29.67,NE,45,2.7,-999.0,98,-99.99,,,0.70,Acu-Link.com,2013-05-06 00:37:00,
2013-05-05 20:53:00,55.4,54.8,29.67,NNW,337,4.7,-999.0,98,-99.99,,,0.70,Acu-Link.com,2013-05-06 00:53:00,
2013-05-05 21:08:00,55.4,54.8,29.67,WSW,247,5.1,-999.0,98,-99.99,,,0.70,Acu-Link.com,2013-05-06 01:08:00,
2013-05-05 21:23:00,55.4,54.8,29.66,East,90,3.6,-999.0,98,-99.99,,,0.70,Acu-Link.com,2013-05-06 01:23:00,
2013-05-05 21:39:00,55.4,54.8,29.67,East,90,2.7,-999.0,98,-99.99,,,0.70,Acu-Link.com,2013-05-06 01:39:00,
2013-05-05 21:54:00,55.4,54.8,29.67,WNW,292,3.1,-999.0,98,-99.99,,,0.70,Acu-Link.com,2013-05-06 01:54:00,
2013-05-05 22:09:00,57.2,56.6,29.67,NW,315,7.8,-999.0,98,-99.99,,,0.70,Acu-Link.com,2013-05-06 02:09:00,
2013-05-05 22:24:00,57.2,56.4,29.67,SW,225,4.7,-999.0,97,-99.99,,,0.71,Acu-Link.com,2013-05-06 02:24:00,
2013-05-05 22:39:00,57.2,56.4,29.66,ENE,67,2.0,-999.0,97,-99.99,,,0.71,Acu-Link.com,2013-05-06 02:39:00,
2013-05-05 22:54:00,57.2,56.4,29.66,NE,45,4.7,-999.0,97,-99.99,,,0.71,Acu-Link.com,2013-05-06 02:54:00,
2013-05-05 23:10:00,57.2,56.4,29.66,West,270,3.6,-999.0,97,-99.99,,,0.71,Acu-Link.com,2013-05-06 03:10:00,
2013-05-05 23:25:00,57.2,56.4,29.66,ENE,67,2.7,-999.0,97,-99.99,,,0.71,Acu-Link.com,2013-05-06 03:25:00,
2013-05-05 23:40:00,57.2,56.4,29.66,SSE,157,2.7,-999.0,97,-99.99,,,0.76,Acu-Link.com,2013-05-06 03:40:00,
2013-05-05 23:55:00,57.2,56.4,29.65,SSE,157,2.7,-999.0,97,-99.99,,,0.77,Acu-Link.com,2013-05-06 03:55:00,